Tracking 19827 objects as of 22-Aug-2019
HD Live streaming from Space Station
objects crossing your sky now

FENGYUN 1C DEB

Track FENGYUN 1C DEB now!
10-day predictions


NORAD ID: 31660
Int'l Code: 1999-025CBS
Perigee: 750.1 km
Apogee: 912.5 km
Inclination: 98.7 °
Period: 101.4 minutes
Semi major axis: 7202 km
RCS: 0.0107 m2 (small)
Launch date: May 10, 1999
Source: People's Republic of China (PRC)
Launch site: Taiyaun Space Center, China (TSC)

Note: This is SATELLITE DEBRIS
aabbcc
Your satellite tracking list
Your tracking list is empty




NASA's NSSDC Master Catalog

Two Line Element Set (TLE):
1 31660U 99025CBS 19232.34361926  .00000066  00000-0  47675-4 0  9997
2 31660  98.6536 269.3264 0112677  43.2201 317.7750 14.20352275636076
Source of the keplerian elements: AFSPC